Wind_Speed
19 17 15 13 10 8 6 3 1 2 4 5 6 7 7 8 9 10 11 12 13 14 14 14 14 13 13 12 11 11 10 10 9 8 7 6 5 4 3 3 2 2 1 1
22 20 18 16 13 11 8 6 4 2 1 2 4 4 5 7 8 8 9 10 11 12 13 14 14 13 13 13 12 11 11 11 10 8 7 6 5 4 4 3 3 2 2 2
24 22 21 19 16 13 10 8 6 4 2 2 2 2 3 5 6 6 7 9 10 11 12 13 13 13 13 13 13 12 12 12 11 10 8 7 6 5 4 4 3 3 3 3
26 25 24 21 19 16 12 10 9 7 5 4 2 2 2 2 4 5 5 7 9 10 11 11 11 12 12 13 13 13 12 12 11 11 9 8 7 5 5 5 4 4 4 4
28 27 26 24 21 19 16 14 12 10 9 7 5 3 1 2 3 4 5 6 7 9 10 10 10 11 11 12 12 13 12 12 12 11 10 10 9 7 6 6 5 5 5 5
30 29 28 26 23 21 20 18 16 14 13 11 8 6 3 3 3 5 5 5 6 8 8 8 9 10 10 11 12 12 13 12 12 11 11 11 10 9 8 7 7 6 6 7
31 30 29 28 26 25 23 21 20 18 17 14 11 9 6 5 4 5 5 5 6 6 8 8 8 9 10 11 11 12 12 12 12 11 11 11 11 10 9 8 7 7 7 7
31 31 29 28 27 27 26 24 22 21 18 16 15 12 7 7 6 5 5 5 5 6 7 8 8 9 9 10 11 12 11 12 12 11 11 12 12 11 10 9 8 8 8 8
32 31 30 29 28 28 27 27 24 23 21 19 17 14 10 9 8 7 7 6 5 5 6 6 8 9 10 10 10 11 11 11 11 12 12 12 12 12 11 10 9 9 9 9
33 32 31 30 30 30 30 28 26 25 23 22 20 17 13 10 10 9 8 7 6 4 5 6 8 9 10 10 10 10 11 11 12 12 13 13 13 13 12 12 11 10 10 9
34 34 32 32 32 31 30 30 29 27 25 23 21 18 14 12 11 10 9 9 8 6 6 7 8 9 10 10 10 10 11 11 12 12 13 13 13 13 14 13 12 12 11 10
34 35 34 33 32 31 31 31 30 29 27 26 23 20 16 15 14 12 10 10 9 8 8 9 9 9 9 9 10 11 12 12 12 12 13 13 13 14 15 14 14 13 12 12
34 35 35 34 34 33 32 32 31 31 29 27 26 22 18 17 15 13 13 12 12 11 10 10 10 9 9 10 11 12 13 14 13 13 14 14 14 14 15 15 13 13 13 13
34 35 35 35 33 32 33 32 32 32 31 29 27 24 21 19 18 17 16 15 14 13 11 10 10 11 11 11 12 13 14 14 14 14 15 15 15 15 16 15 14 14 13 14
34 34 34 34 34 34 34 33 32 32 32 31 28 26 24 22 20 19 18 17 15 14 13 12 12 12 12 12 13 13 14 14 14 15 15 15 16 16 16 15 15 15 15 15
34 34 33 33 34 35 36 35 34 34 33 32 31 29 27 24 23 22 20 18 16 15 15 14 13 13 13 13 14 14 15 15 15 15 16 16 16 17 16 16 17 16 16 16
35 35 34 33 33 34 37 36 36 36 35 33 32 30 28 27 25 23 22 21 19 17 16 16 15 15 14 15 16 16 16 16 16 17 17 17 17 17 17 16 16 16 17 15
36 36 35 34 34 35 35 36 37 36 36 35 34 32 31 28 26 25 23 22 21 19 18 17 18 18 16 17 17 18 18 17 17 18 19 19 18 18 18 17 17 16 16 15
37 37 36 36 36 36 35 35 36 36 36 35 34 33 32 30 28 26 24 23 22 22 21 20 20 20 19 19 20 20 20 19 19 19 21 20 19 19 19 17 16 16 16 16
37 38 38 37 37 37 35 35 36 36 36 35 35 34 33 31 30 28 26 25 23 23 23 22 22 22 22 22 22 22 22 22 21 21 21 21 21 20 19 17 17 17 16 16
38 38 38 38 38 38 37 36 35 36 36 35 35 35 33 32 32 30 29 28 27 26 26 26 25 25 25 25 24 24 23 24 24 24 23 22 22 22 20 18 17 17 17 17
37 38 38 38 39 39 37 37 36 36 36 36 35 35 34 34 33 32 31 30 30 29 28 28 28 28 27 27 26 25 25 25 25 24 24 24 24 24 21 19 18 18 18 18
37 38 38 39 39 38 37 37 36 36 36 36 36 35 34 34 33 33 33 33 32 32 31 30 31 30 29 28 27 26 26 26 26 26 25 26 26 25 23 21 20 20 20 20
37 37 38 38 38 38 38 37 37 37 37 36 36 35 34 33 33 34 34 34 34 33 33 33 33 32 31 30 28 27 27 27 27 28 28 26 24 23 23 22 21 21 21 21
37 37 38 38 38 38 37 37 36 36 37 37 37 36 36 34 33 34 34 34 34 34 34 33 34 32 32 32 30 29 28 28 29 28 27 25 24 23 22 22 21 22 22 22
35 36 37 37 37 37 37 36 37 37 37 37 37 36 36 35 34 34 34 34 35 34 33 33 33 34 33 32 31 30 29 29 29 28 26 24 23 22 22 21 21 22 23 23
Wind_Direction
209 208 211 217 217 218 222 227 208 103 86 80 65 54 47 37 34 31 33 38 41 40 38 38 37 37 37 35 35 34 33 31 31 33 34 34 35 36 34 26 18 23 24 329
210 210 213 218 218 221 222 222 222 211 116 84 57 45 43 35 29 28 28 29 34 36 36 35 34 34 33 31 31 30 29 27 28 29 30 27 22 15 12 4 353 354 333 312
213 212 215 217 218 223 225 228 235 235 259 290 350 28 40 36 23 21 23 25 28 29 30 32 32 33 33 32 31 30 27 25 24 24 23 20 15 5 355 348 335 313 308 301
213 211 213 217 220 225 228 228 237 244 254 270 296 353 18 23 13 9 8 13 17 19 23 26 30 30 31 32 32 29 27 24 21 19 20 14 6 358 348 341 332 317 303 295
214 213 216 218 221 226 228 233 239 246 252 264 269 292 327 336 344 340 344 359 9 12 16 20 24 26 27 28 28 26 24 22 19 15 13 9 2 353 343 335 327 319 310 304
217 217 219 221 222 225 229 234 239 246 252 257 262 269 285 305 309 324 329 347 358 6 9 15 19 22 22 23 23 20 18 17 15 13 12 9 3 357 348 336 324 316 311 304
219 219 220 221 223 226 229 234 239 244 249 254 258 262 273 280 294 317 321 332 344 356 9 14 15 14 15 16 16 12 11 13 12 9 6 4 2 357 353 344 332 323 315 308
221 221 222 222 225 227 230 235 239 246 250 252 254 258 264 264 272 285 297 312 333 349 6 15 12 8 8 9 8 6 7 8 10 8 5 2 2 359 354 348 337 326 317 312
222 222 223 224 226 228 230 234 238 245 249 250 251 252 256 259 264 274 285 304 316 329 341 358 8 6 2 360 359 1 0 1 3 3 2 2 1 359 353 346 339 332 322 311
222 222 222 224 225 227 229 233 237 242 247 248 249 251 254 254 264 270 282 294 299 306 327 338 351 356 354 352 352 357 360 358 356 355 356 357 357 355 351 345 340 333 326 314
223 223 222 224 225 228 231 233 236 240 245 248 251 253 254 256 260 268 274 276 286 294 310 320 331 339 343 346 346 350 351 353 353 349 348 349 350 350 346 343 341 336 328 319
226 225 224 224 227 228 231 234 236 239 244 248 252 255 254 257 259 263 267 271 278 285 297 305 317 326 334 340 339 338 340 340 340 339 338 340 342 342 342 338 336 334 330 326
225 226 226 224 226 228 230 233 236 240 244 249 252 255 253 255 257 260 263 267 271 275 285 295 306 312 319 327 329 328 331 334 332 332 332 332 333 335 337 335 330 329 327 323
226 227 228 228 229 231 232 233 236 240 243 246 250 254 254 255 258 260 264 269 267 266 274 286 297 303 307 314 320 320 325 328 327 326 326 328 327 328 329 329 328 328 324 324
226 228 229 229 229 230 231 233 235 239 243 247 250 253 255 255 257 259 262 266 266 266 268 280 291 297 300 305 310 313 317 320 321 320 320 321 324 324 325 325 326 324 321 320
228 229 230 231 231 231 232 233 235 238 242 246 250 253 256 257 257 258 261 263 264 266 269 275 282 287 291 296 302 307 311 312 313 314 314 314 316 318 319 320 321 321 321 317
230 231 231 233 234 234 234 234 237 239 242 245 249 252 256 258 257 259 261 264 264 266 269 270 275 279 283 290 295 299 303 304 305 307 308 308 309 312 314 315 316 318 320 315
232 233 233 233 234 236 236 237 239 242 244 246 249 251 254 256 256 255 258 262 260 259 263 269 275 279 281 286 290 291 292 294 297 300 302 303 303 305 307 309 310 314 317 313
233 234 235 235 236 238 238 239 240 242 244 246 248 251 253 254 254 254 255 259 255 256 259 264 269 273 276 281 285 285 289 291 295 297 301 299 299 302 303 303 308 312 313 312
233 234 235 237 238 239 238 240 241 243 245 246 248 250 252 253 253 253 254 255 251 253 257 261 265 271 274 280 284 285 287 290 292 294 297 299 299 298 300 301 302 306 307 306
233 234 236 238 241 241 240 241 242 244 246 247 248 250 251 252 253 252 253 254 252 253 257 261 266 270 274 278 282 285 288 290 291 291 290 293 295 296 295 298 298 299 300 301
234 235 237 238 240 242 241 242 243 244 245 246 248 250 251 253 253 251 251 250 250 254 258 262 266 268 270 273 277 280 284 286 287 289 289 289 292 296 295 294 296 296 296 298
236 236 238 239 241 242 242 243 243 244 245 246 247 249 250 251 252 253 251 251 251 252 255 260 263 264 265 268 272 275 279 285 286 288 290 289 288 292 291 290 291 294 294 295
237 238 239 241 242 242 242 243 244 244 244 245 245 245 248 250 252 252 252 251 251 251 254 256 260 263 265 267 270 273 276 281 285 287 287 287 288 289 290 287 289 291 291 293
239 240 241 243 243 243 243 244 245 245 244 244 245 246 247 248 250 251 251 250 250 252 253 256 259 260 262 264 266 271 275 279 283 286 284 284 284 287 287 285 286 290 290 292
240 241 243 244 244 244 244 244 245 245 244 244 245 246 245 246 249 250 247 247 249 251 255 258 261 262 265 264 264 268 272 275 280 283 281 279 280 285 285 285 288 290 288 290
Height
5916 5919 5921 5922 5924 5925 5926 5927 5927 5928 5928 5927 5927 5927 5927 5926 5925 5924 5922 5920 5918 5917 5915 5913 5912 5910 5909 5907 5906 5904 5903 5902 5900 5899 5898 5897 5896 5896 5895 5895 5894 5894 5894 5894
5915 5917 5919 5921 5922 5924 5925 5927 5927 5928 5928 5928 5928 5928 5927 5927 5926 5925 5924 5922 5920 5918 5917 5915 5914 5912 5910 5909 5907 5905 5904 5902 5901 5900 5899 5898 5897 5896 5896 5895 5895 5894 5894 5894
5912 5916 5917 5919 5921 5923 5924 5926 5927 5927 5927 5928 5928 5928 5928 5928 5927 5926 5925 5923 5921 5920 5918 5916 5915 5913 5911 5910 5908 5906 5905 5903 5902 5900 5899 5898 5897 5897 5896 5895 5895 5894 5894 5894
5908 5912 5914 5917 5919 5921 5923 5924 5925 5926 5927 5927 5928 5928 5928 5928 5927 5926 5925 5924 5923 5921 5919 5917 5916 5914 5912 5910 5909 5907 5906 5904 5903 5901 5900 5898 5897 5896 5896 5895 5894 5894 5893 5893
5905 5908 5911 5914 5917 5919 5921 5922 5924 5924 5925 5926 5927 5928 5929 5927 5927 5927 5926 5925 5923 5922 5920 5918 5916 5915 5913 5912 5910 5908 5906 5905 5903 5902 5900 5899 5898 5896 5895 5894 5894 5893 5893 5892
5901 5905 5908 5911 5914 5916 5918 5920 5921 5922 5924 5925 5926 5927 5928 5927 5927 5926 5926 5925 5924 5922 5920 5918 5917 5915 5914 5912 5911 5909 5907 5905 5904 5902 5901 5899 5898 5896 5895 5894 5893 5892 5892 5891
5896 5900 5904 5907 5910 5913 5915 5918 5919 5920 5921 5923 5924 5925 5927 5926 5926 5926 5925 5924 5923 5922 5920 5917 5916 5916 5915 5913 5911 5909 5907 5906 5904 5903 5901 5900 5898 5896 5894 5893 5892 5891 5891 5890
5892 5896 5900 5903 5907 5909 5912 5915 5917 5918 5919 5921 5922 5923 5925 5925 5925 5924 5924 5923 5922 5922 5920 5918 5917 5916 5915 5913 5912 5910 5908 5906 5905 5903 5902 5900 5898 5896 5894 5893 5892 5890 5890 5889
5887 5892 5896 5899 5902 5906 5908 5910 5913 5915 5916 5918 5919 5921 5923 5923 5923 5923 5923 5922 5921 5921 5920 5919 5918 5916 5915 5913 5912 5910 5908 5907 5905 5904 5902 5900 5898 5896 5894 5892 5891 5889 5888 5887
5881 5887 5891 5894 5897 5900 5903 5906 5909 5911 5912 5914 5916 5918 5920 5921 5921 5921 5922 5921 5920 5919 5919 5918 5917 5916 5914 5913 5912 5910 5909 5907 5905 5904 5902 5900 5898 5896 5894 5892 5890 5889 5887 5886
5876 5881 5885 5889 5892 5895 5899 5902 5904 5907 5909 5910 5912 5917 5917 5918 5919 5919 5920 5920 5919 5918 5918 5917 5916 5915 5914 5913 5911 5910 5909 5907 5905 5904 5902 5900 5898 5896 5893 5891 5889 5887 5886 5884
5870 5875 5879 5883 5887 5890 5893 5897 5900 5903 5905 5906 5908 5914 5914 5915 5916 5916 5917 5917 5917 5917 5916 5916 5915 5914 5913 5911 5910 5909 5908 5906 5905 5903 5901 5899 5897 5895 5892 5890 5888 5886 5884 5882
5864 5868 5873 5877 5882 5885 5888 5891 5894 5898 5900 5902 5904 5910 5910 5911 5912 5913 5914 5914 5914 5914 5914 5914 5913 5912 5911 5910 5909 5908 5906 5905 5903 5901 5899 5898 5895 5893 5891 5889 5887 5885 5883 5881
5858 5862 5867 5872 5876 5879 5882 5886 5889 5892 5894 5897 5900 5903 5906 5907 5908 5910 5910 5911 5911 5911 5911 5911 5911 5910 5909 5908 5907 5906 5905 5903 5901 5899 5898 5896 5894 5892 5889 5887 5885 5883 5881 5879
5851 5855 5860 5865 5869 5873 5876 5880 5883 5886 5889 5892 5895 5897 5900 5902 5904 5905 5906 5907 5907 5907 5908 5908 5907 5907 5906 5906 5905 5903 5902 5901 5899 5897 5895 5894 5892 5890 5887 5885 5883 5881 5879 5876
5844 5849 5854 5858 5862 5866 5870 5874 5877 5880 5883 5886 5889 5892 5894 5896 5898 5900 5901 5902 5903 5904 5904 5904 5904 5904 5903 5902 5901 5900 5899 5898 5896 5895 5893 5891 5890 5887 5885 5883 5881 5878 5876 5873
5838 5843 5847 5851 5855 5859 5862 5867 5870 5874 5876 5880 5882 5886 5888 5890 5892 5894 5896 5897 5898 5899 5900 5900 5900 5900 5899 5899 5898 5897 5896 5894 5893 5892 5890 5888 5886 5884 5882 5880 5878 5875 5873 5870
5832 5836 5840 5844 5848 5851 5858 5860 5863 5867 5870 5873 5876 5879 5882 5884 5886 5888 5890 5891 5893 5894 5895 5895 5895 5895 5895 5894 5894 5892 5891 5890 5889 5887 5886 5884 5882 5881 5879 5877 5874 5872 5870 5868
5824 5829 5832 5836 5839 5844 5849 5852 5856 5859 5862 5866 5869 5872 5874 5877 5879 5881 5884 5885 5887 5888 5889 5890 5890 5890 5890 5889 5888 5887 5885 5884 5884 5883 5881 5879 5877 5876 5874 5873 5871 5868 5866 5865
5816 5821 5825 5828 5832 5836 5842 5845 5848 5852 5854 5859 5861 5864 5867 5869 5872 5875 5877 5878 5880 5882 5883 5883 5884 5884 5884 5884 5883 5882 5880 5879 5879 5878 5876 5875 5873 5871 5870 5868 5866 5865 5863 5861
5808 5812 5816 5820 5823 5828 5833 5837 5840 5844 5848 5851 5853 5856 5859 5862 5864 5868 5869 5871 5873 5875 5876 5877 5877 5878 5878 5878 5877 5876 5875 5874 5873 5872 5871 5869 5868 5866 5865 5863 5862 5861 5859 5858
5800 5804 5808 5812 5815 5822 5825 5828 5832 5835 5839 5841 5845 5848 5851 5853 5856 5859 5861 5863 5865 5867 5868 5870 5870 5871 5871 5871 5871 5871 5870 5869 5867 5865 5864 5863 5862 5860 5858 5858 5857 5856 5855 5853
5792 5797 5800 5804 5809 5813 5816 5819 5823 5826 5829 5833 5836 5839 5842 5845 5847 5850 5852 5854 5857 5859 5860 5862 5863 5863 5864 5864 5864 5864 5863 5862 5861 5860 5858 5857 5856 5855 5853 5853 5852 5851 5850 5848
5784 5788 5792 5796 5799 5803 5807 5810 5814 5817 5821 5824 5827 5830 5833 5836 5839 5841 5843 5846 5848 5850 5852 5853 5854 5855 5856 5856 5856 5856 5856 5855 5854 5853 5852 5850 5848 5848 5847 5846 5846 5845 5844 5843
5776 5779 5783 5787 5791 5794 5798 5801 5805 5809 5812 5815 5818 5821 5824 5827 5830 5832 5834 5837 5839 5841 5843 5844 5845 5847 5848 5848 5848 5848 5848 5848 5847 5846 5845 5843 5842 5842 5840 5840 5840 5839 5838 5837
5768 5771 5774 5778 5782 5785 5789 5793 5796 5799 5802 5805 5809 5812 5815 5818 5820 5823 5825 5827 5829 5832 5833 5835 5836 5838 5838 5838 5839 5840 5840 5840 5840 5839 5838 5836 5836 5836 5835 5834 5834 5832 5832 5831